Terminal Aerodrome Forecast
Issued by NWS Salt Lake City, UT

Home | Current Version | Previous Version | Text Only | Print | Product List | Glossary On
Versions: 1 2 3 4 5 6 7 8 9 10 11 12 13 14 15 16 17 18 19 20 21 22 23 24 25 26 27 28 29 30 31 32 33 34 35 36 37 38 39 40 41 42 43 44 45 46 47 48 49 50
000
FTUS45 KSLC 141128
TAFSLC
TAF
KSLC 141128Z 1412/1518 14005KT 1/4SM FZFG VCSH OVC006
      TEMPO 1412/1415 2SM BR
     FM142000 17006KT 4SM BR SCT006 OVC008
     FM150200 17010KT 2SM BR BKN008 OVC010
     FM150600 32005KT 1/2SM FZFG OVC004=

USA.gov is the U.S. government's official web portal to all federal, state and local government web resources and services.